Pagrindinis puslapis
METAR-TAF:

METAR-TAF

Oro uostai :

Sveg, Švedija

platuma: 62-02-52N, ilguma: 014-25-22E, Aukštis: 359 m

Dabartinis oras

Ataskaita buvo paskelbta 26 minutes, ne 21:20 UTC
Vėjas 3 kt iš Pietų/Pietryčių
Temperatūra 12°C
Drėgmė 76%
Slėgis 1012 hPa
Matomumas 10 km arba daugiau

METAR: ESND 162120Z AUTO 16003KT 9999 SCT180/// 12/08 Q1012

Laikas: 23:46 (21:46 UTC)


TAF: trūkstamas

Orai ataskaitas ir orų prognozės (METAR, TAF).

turimą stotys yra geltonos ir raudonos taškus žemėlapyje.

Perkelti pele per norėdami pamatyti stoties vardą.

Tada spustelėkite, norėdami matyti oro stebėjimo ir prognozės.

Norėdami pakeisti žemėlapį: spustelėkite ant žalios mygtukų su juodo kryžiaus žemyn,; žalią mygtuką su brūkšneliu, jei norite nutolinti; arba žalių rodyklių gretimoms žemėlapius.


METAR-TAF: